QPF
0.01 0.03 0.08 0.19 0.25 0.17 0.07 0.03 0.01 0.01 0.00 0.01 0.01 0.02 0.05 0.07 0.07 0.04 0.04 0.03 0.02 0.02 0.03 0.02 0.02 0.04 0.06 0.09 0.15 0.25 0.36 0.38 0.27 0.17 0.11 0.09 0.09 0.09 0.06 0.04 0.02 0.01 0.01 0.01
0.01 0.02 0.04 0.10 0.09 0.05 0.02 0.01 0.01 0.01 0.02 0.03 0.03 0.08 0.14 0.17 0.15 0.10 0.08 0.08 0.07 0.07 0.06 0.05 0.05 0.05 0.06 0.09 0.15 0.24 0.35 0.40 0.37 0.27 0.17 0.12 0.15 0.16 0.12 0.10 0.07 0.05 0.03 0.02
0.00 0.02 0.03 0.04 0.03 0.03 0.03 0.03 0.01 0.02 0.03 0.05 0.13 0.32 0.38 0.34 0.30 0.21 0.15 0.14 0.13 0.13 0.13 0.13 0.12 0.10 0.10 0.12 0.16 0.23 0.31 0.37 0.35 0.27 0.20 0.15 0.19 0.20 0.17 0.14 0.13 0.12 0.10 0.07
0.01 0.03 0.09 0.06 0.04 0.05 0.06 0.06 0.04 0.05 0.07 0.18 0.41 0.56 0.41 0.32 0.31 0.26 0.17 0.14 0.14 0.14 0.12 0.11 0.11 0.09 0.10 0.11 0.13 0.14 0.16 0.16 0.17 0.17 0.16 0.15 0.16 0.16 0.15 0.14 0.15 0.16 0.17 0.19
0.00 0.04 0.15 0.08 0.03 0.04 0.06 0.08 0.09 0.12 0.16 0.22 0.24 0.17 0.11 0.09 0.12 0.14 0.10 0.07 0.06 0.06 0.05 0.03 0.03 0.03 0.03 0.03 0.03 0.03 0.04 0.04 0.05 0.05 0.05 0.05 0.05 0.06 0.09 0.11 0.12 0.14 0.18 0.23
0.00 0.01 0.03 0.03 0.01 0.01 0.03 0.07 0.06 0.07 0.09 0.06 0.03 0.02 0.03 0.04 0.04 0.03 0.02 0.01 0.01 0.01 0.01 0.00 0.00 0.00 0.00 0.00 0.00 0.00 0.00 0.00 0.00 0.00 0.00 0.00 0.00 0.01 0.02 0.04 0.05 0.07 0.09 0.13
0.00 0.00 0.01 0.00 0.00 0.00 0.02 0.04 0.02 0.02 0.02 0.00 0.00 0.00 0.01 0.03 0.03 0.01 0.00 0.00 0.00 0.00 0.00 0.00 0.00 0.00 0.00 0.00 0.00 0.00 0.00 0.00 0.00 0.00 0.00 0.00 0.00 0.00 0.00 0.00 0.01 0.01 0.02 0.05
0.00 0.00 0.00 0.00 0.00 0.00 0.01 0.01 0.01 0.01 0.00 0.00 0.00 0.00 0.00 0.01 0.02 0.01 0.00 0.00 0.00 0.00 0.00 0.00 0.00 0.00 0.00 0.00 0.00 0.00 0.00 0.00 0.00 0.00 0.00 0.00 0.00 0.00 0.00 0.00 0.00 0.00 0.00 0.01
0.00 0.00 0.00 0.00 0.00 0.00 0.00 0.00 0.00 0.00 0.00 0.00 0.00 0.00 0.00 0.00 0.01 0.01 0.00 0.00 0.00 0.00 0.00 0.00 0.00 0.00 0.00 0.00 0.00 0.00 0.00 0.00 0.00 0.00 0.00 0.00 0.00 0.00 0.00 0.00 0.00 0.00 0.00 0.00
0.00 0.00 0.00 0.00 0.00 0.00 0.00 0.00 0.00 0.00 0.00 0.00 0.00 0.00 0.00 0.00 0.01 0.01 0.00 0.00 0.00 0.00 0.00 0.00 0.00 0.00 0.00 0.00 0.00 0.00 0.00 0.00 0.00 0.00 0.00 0.00 0.00 0.00 0.00 0.00 0.00 0.00 0.00 0.00
0.00 0.00 0.00 0.00 0.00 0.00 0.00 0.00 0.00 0.00 0.00 0.00 0.00 0.00 0.00 0.00 0.01 0.00 0.00 0.00 0.00 0.00 0.00 0.00 0.00 0.00 0.00 0.00 0.00 0.00 0.00 0.00 0.00 0.00 0.00 0.00 0.00 0.00 0.00 0.00 0.00 0.00 0.00 0.00
0.00 0.00 0.00 0.00 0.00 0.00 0.00 0.00 0.00 0.00 0.00 0.00 0.00 0.00 0.00 0.00 0.00 0.00 0.00 0.00 0.00 0.00 0.00 0.00 0.00 0.00 0.00 0.00 0.00 0.00 0.00 0.00 0.00 0.00 0.00 0.00 0.00 0.00 0.00 0.00 0.00 0.00 0.00 0.00
0.00 0.00 0.00 0.00 0.00 0.00 0.00 0.00 0.00 0.00 0.00 0.00 0.00 0.00 0.00 0.00 0.00 0.00 0.00 0.00 0.00 0.00 0.00 0.00 0.00 0.00 0.00 0.00 0.00 0.00 0.00 0.00 0.00 0.00 0.00 0.00 0.00 0.00 0.00 0.00 0.00 0.00 0.00 0.00
0.00 0.00 0.00 0.00 0.00 0.00 0.00 0.00 0.00 0.00 0.00 0.00 0.00 0.00 0.00 0.00 0.00 0.00 0.00 0.00 0.00 0.00 0.00 0.00 0.00 0.00 0.00 0.00 0.00 0.00 0.00 0.00 0.00 0.00 0.00 0.00 0.00 0.00 0.00 0.00 0.00 0.00 0.00 0.00
0.00 0.00 0.00 0.00 0.00 0.00 0.00 0.00 0.00 0.00 0.00 0.00 0.00 0.00 0.00 0.00 0.00 0.00 0.00 0.00 0.00 0.00 0.00 0.00 0.00 0.00 0.00 0.00 0.00 0.00 0.00 0.00 0.00 0.00 0.00 0.00 0.00 0.00 0.00 0.00 0.00 0.00 0.00 0.00
0.00 0.00 0.00 0.00 0.00 0.00 0.00 0.00 0.00 0.00 0.00 0.00 0.00 0.00 0.00 0.00 0.00 0.00 0.00 0.00 0.00 0.00 0.00 0.00 0.00 0.00 0.00 0.00 0.00 0.00 0.00 0.00 0.00 0.00 0.00 0.00 0.00 0.00 0.00 0.00 0.00 0.00 0.00 0.00
0.00 0.00 0.00 0.00 0.00 0.00 0.00 0.00 0.00 0.00 0.00 0.00 0.00 0.00 0.00 0.00 0.00 0.00 0.00 0.00 0.00 0.00 0.00 0.00 0.00 0.00 0.00 0.00 0.00 0.00 0.00 0.00 0.00 0.00 0.00 0.00 0.00 0.00 0.00 0.00 0.00 0.00 0.00 0.00
0.00 0.00 0.00 0.00 0.00 0.00 0.00 0.00 0.00 0.00 0.00 0.00 0.00 0.00 0.00 0.00 0.00 0.00 0.00 0.00 0.00 0.00 0.00 0.00 0.00 0.00 0.00 0.00 0.00 0.00 0.00 0.00 0.00 0.00 0.00 0.00 0.00 0.00 0.00 0.00 0.00 0.00 0.00 0.00
0.00 0.00 0.00 0.00 0.00 0.00 0.00 0.00 0.00 0.00 0.00 0.00 0.00 0.00 0.00 0.00 0.00 0.00 0.00 0.00 0.00 0.00 0.00 0.00 0.00 0.00 0.00 0.00 0.00 0.00 0.00 0.00 0.00 0.00 0.00 0.00 0.00 0.00 0.00 0.00 0.00 0.00 0.00 0.00
0.00 0.00 0.00 0.00 0.00 0.00 0.00 0.00 0.00 0.00 0.00 0.00 0.00 0.00 0.00 0.00 0.00 0.00 0.00 0.00 0.00 0.00 0.00 0.00 0.00 0.00 0.00 0.00 0.00 0.00 0.00 0.00 0.00 0.00 0.00 0.00 0.00 0.00 0.00 0.00 0.00 0.00 0.00 0.00
0.00 0.00 0.00 0.00 0.00 0.00 0.00 0.00 0.00 0.00 0.00 0.00 0.00 0.00 0.00 0.00 0.00 0.00 0.00 0.00 0.00 0.00 0.00 0.00 0.00 0.00 0.00 0.00 0.00 0.00 0.00 0.00 0.00 0.00 0.00 0.00 0.00 0.00 0.00 0.00 0.00 0.00 0.00 0.00
0.00 0.00 0.00 0.00 0.00 0.00 0.00 0.00 0.00 0.00 0.00 0.00 0.00 0.00 0.00 0.00 0.00 0.00 0.00 0.00 0.00 0.00 0.00 0.00 0.00 0.00 0.00 0.00 0.00 0.00 0.00 0.00 0.00 0.00 0.00 0.00 0.00 0.00 0.00 0.00 0.00 0.00 0.00 0.00
0.00 0.00 0.00 0.00 0.00 0.00 0.00 0.00 0.00 0.00 0.00 0.00 0.00 0.00 0.00 0.00 0.00 0.00 0.00 0.00 0.00 0.00 0.00 0.00 0.00 0.00 0.00 0.00 0.00 0.00 0.00 0.00 0.00 0.00 0.00 0.00 0.00 0.00 0.00 0.00 0.00 0.00 0.00 0.00
0.00 0.00 0.00 0.00 0.00 0.00 0.00 0.00 0.00 0.00 0.00 0.00 0.00 0.00 0.00 0.00 0.00 0.00 0.00 0.00 0.00 0.00 0.00 0.00 0.00 0.00 0.00 0.00 0.00 0.00 0.00 0.00 0.00 0.00 0.00 0.00 0.00 0.00 0.00 0.00 0.00 0.00 0.00 0.00
0.00 0.00 0.00 0.00 0.00 0.00 0.00 0.00 0.00 0.00 0.00 0.00 0.00 0.00 0.00 0.00 0.00 0.00 0.00 0.00 0.00 0.00 0.00 0.00 0.00 0.00 0.00 0.00 0.00 0.00 0.00 0.00 0.00 0.00 0.00 0.00 0.00 0.00 0.00 0.00 0.00 0.00 0.00 0.00
0.00 0.00 0.00 0.00 0.00 0.00 0.00 0.00 0.00 0.00 0.00 0.00 0.00 0.00 0.00 0.00 0.00 0.00 0.00 0.00 0.00 0.00 0.00 0.00 0.00 0.00 0.00 0.00 0.00 0.00 0.00 0.00 0.00 0.00 0.00 0.00 0.00 0.00 0.00 0.00 0.00 0.00 0.00 0.00
0.00 0.00 0.00 0.00 0.00 0.00 0.00 0.00 0.00 0.00 0.00 0.00 0.00 0.00 0.00 0.00 0.00 0.00 0.00 0.00 0.00 0.00 0.00 0.00 0.00 0.00 0.00 0.00 0.00 0.00 0.00 0.00 0.00 0.00 0.00 0.00 0.00 0.00 0.00 0.00 0.00 0.00 0.00 0.00
MSLP
1019.16 1019.30 1019.42 1019.53 1019.62 1019.67 1019.66 1019.58 1019.41 1019.13 1018.74 1018.24 1017.62 1016.90 1016.10 1015.26 1014.38 1013.51 1012.66 1011.88 1011.17 1010.56 1010.05 1009.66 1009.39 1009.22 1009.16 1009.19 1009.29 1009.44 1009.62 1009.82 1010.02 1010.20 1010.36 1010.49 1010.58 1010.64 1010.68 1010.71 1010.75 1010.81 1010.90 1011.03
1019.69 1019.87 1020.02 1020.16 1020.25 1020.29 1020.27 1020.16 1019.95 1019.64 1019.22 1018.69 1018.05 1017.31 1016.51 1015.66 1014.79 1013.93 1013.10 1012.34 1011.66 1011.08 1010.62 1010.27 1010.03 1009.89 1009.85 1009.88 1009.96 1010.08 1010.22 1010.35 1010.48 1010.58 1010.65 1010.69 1010.70 1010.67 1010.62 1010.57 1010.53 1010.52 1010.55 1010.65
1020.32 1020.52 1020.69 1020.84 1020.93 1020.96 1020.92 1020.78 1020.54 1020.20 1019.74 1019.17 1018.50 1017.74 1016.92 1016.07 1015.20 1014.35 1013.56 1012.83 1012.21 1011.69 1011.28 1010.99 1010.80 1010.70 1010.68 1010.71 1010.77 1010.84 1010.92 1010.98 1011.02 1011.03 1011.01 1010.96 1010.88 1010.77 1010.64 1010.52 1010.40 1010.32 1010.30 1010.34
1021.04 1021.23 1021.39 1021.52 1021.60 1021.60 1021.53 1021.36 1021.08 1020.70 1020.20 1019.59 1018.89 1018.11 1017.28 1016.42 1015.56 1014.74 1013.99 1013.32 1012.76 1012.31 1011.98 1011.75 1011.62 1011.56 1011.55 1011.57 1011.60 1011.63 1011.63 1011.62 1011.57 1011.50 1011.40 1011.27 1011.12 1010.95 1010.77 1010.59 1010.42 1010.29 1010.20 1010.19
1021.76 1021.92 1022.04 1022.13 1022.16 1022.13 1022.01 1021.79 1021.47 1021.04 1020.50 1019.86 1019.14 1018.34 1017.50 1016.65 1015.82 1015.04 1014.34 1013.74 1013.25 1012.88 1012.62 1012.46 1012.38 1012.35 1012.35 1012.36 1012.36 1012.33 1012.28 1012.19 1012.08 1011.94 1011.78 1011.60 1011.41 1011.21 1011.01 1010.80 1010.61 1010.44 1010.31 1010.24
1022.38 1022.47 1022.53 1022.56 1022.54 1022.44 1022.27 1022.01 1021.64 1021.17 1020.60 1019.93 1019.19 1018.39 1017.56 1016.74 1015.95 1015.22 1014.58 1014.04 1013.63 1013.33 1013.14 1013.03 1012.99 1012.99 1012.99 1012.99 1012.96 1012.89 1012.79 1012.65 1012.49 1012.31 1012.12 1011.93 1011.74 1011.55 1011.35 1011.16 1010.96 1010.78 1010.62 1010.49
1022.78 1022.80 1022.79 1022.75 1022.66 1022.51 1022.28 1021.97 1021.56 1021.06 1020.47 1019.80 1019.06 1018.27 1017.47 1016.69 1015.94 1015.27 1014.69 1014.22 1013.87 1013.63 1013.49 1013.43 1013.42 1013.43 1013.44 1013.43 1013.37 1013.28 1013.15 1012.99 1012.80 1012.62 1012.44 1012.26 1012.10 1011.94 1011.78 1011.62 1011.45 1011.27 1011.08 1010.91
1022.90 1022.85 1022.77 1022.66 1022.51 1022.31 1022.04 1021.69 1021.27 1020.75 1020.16 1019.50 1018.79 1018.04 1017.28 1016.54 1015.86 1015.24 1014.72 1014.30 1014.00 1013.80 1013.70 1013.66 1013.66 1013.68 1013.69 1013.67 1013.61 1013.51 1013.37 1013.21 1013.04 1012.87 1012.72 1012.59 1012.48 1012.37 1012.26 1012.15 1012.01 1011.84 1011.65 1011.44
1022.71 1022.60 1022.47 1022.32 1022.13 1021.90 1021.61 1021.25 1020.83 1020.33 1019.76 1019.13 1018.46 1017.76 1017.06 1016.38 1015.75 1015.18 1014.71 1014.33 1014.05 1013.87 1013.78 1013.74 1013.74 1013.76 1013.77 1013.75 1013.70 1013.61 1013.49 1013.36 1013.22 1013.10 1012.99 1012.91 1012.86 1012.81 1012.75 1012.68 1012.57 1012.42 1012.22 1011.98
1022.25 1022.11 1021.96 1021.79 1021.59 1021.36 1021.07 1020.73 1020.33 1019.87 1019.35 1018.77 1018.16 1017.52 1016.88 1016.26 1015.68 1015.16 1014.71 1014.34 1014.07 1013.89 1013.78 1013.73 1013.71 1013.72 1013.73 1013.72 1013.68 1013.62 1013.55 1013.46 1013.37 1013.30 1013.25 1013.22 1013.21 1013.21 1013.20 1013.16 1013.08 1012.94 1012.74 1012.48
1021.58 1021.44 1021.30 1021.14 1020.97 1020.77 1020.52 1020.22 1019.87 1019.47 1019.00 1018.50 1017.95 1017.38 1016.80 1016.23 1015.69 1015.19 1014.75 1014.38 1014.09 1013.87 1013.73 1013.65 1013.61 1013.60 1013.61 1013.61 1013.61 1013.59 1013.56 1013.53 1013.50 1013.49 1013.49 1013.50 1013.53 1013.56 1013.57 1013.54 1013.47 1013.34 1013.14 1012.87
1020.81 1020.69 1020.59 1020.48 1020.37 1020.22 1020.03 1019.79 1019.50 1019.16 1018.77 1018.33 1017.85 1017.35 1016.82 1016.29 1015.78 1015.29 1014.84 1014.44 1014.11 1013.85 1013.66 1013.53 1013.46 1013.43 1013.43 1013.46 1013.49 1013.52 1013.55 1013.58 1013.61 1013.64 1013.69 1013.73 1013.78 1013.82 1013.83 1013.81 1013.74 1013.61 1013.41 1013.14
1020.02 1019.96 1019.92 1019.88 1019.83 1019.75 1019.63 1019.46 1019.24 1018.96 1018.64 1018.26 1017.84 1017.39 1016.91 1016.41 1015.91 1015.41 1014.94 1014.51 1014.13 1013.81 1013.55 1013.37 1013.26 1013.21 1013.21 1013.26 1013.32 1013.41 1013.50 1013.59 1013.67 1013.76 1013.83 1013.90 1013.95 1013.98 1013.99 1013.95 1013.88 1013.75 1013.56 1013.31
1019.28 1019.29 1019.33 1019.37 1019.39 1019.38 1019.33 1019.22 1019.06 1018.84 1018.56 1018.23 1017.86 1017.45 1017.00 1016.52 1016.03 1015.52 1015.02 1014.54 1014.11 1013.73 1013.41 1013.18 1013.02 1012.95 1012.95 1013.01 1013.11 1013.24 1013.39 1013.54 1013.68 1013.81 1013.91 1013.99 1014.04 1014.07 1014.06 1014.02 1013.93 1013.81 1013.63 1013.42
1018.63 1018.72 1018.84 1018.96 1019.05 1019.11 1019.11 1019.05 1018.92 1018.74 1018.49 1018.20 1017.86 1017.47 1017.05 1016.58 1016.08 1015.57 1015.04 1014.52 1014.04 1013.60 1013.23 1012.94 1012.75 1012.65 1012.64 1012.72 1012.86 1013.03 1013.24 1013.44 1013.63 1013.80 1013.93 1014.03 1014.08 1014.10 1014.08 1014.03 1013.95 1013.84 1013.70 1013.53
1018.08 1018.24 1018.44 1018.63 1018.79 1018.89 1018.93 1018.90 1018.79 1018.62 1018.40 1018.12 1017.80 1017.43 1017.01 1016.56 1016.06 1015.54 1014.99 1014.44 1013.92 1013.43 1013.02 1012.69 1012.46 1012.34 1012.32 1012.41 1012.57 1012.79 1013.05 1013.30 1013.54 1013.75 1013.92 1014.03 1014.10 1014.12 1014.10 1014.06 1013.99 1013.90 1013.80 1013.68
1017.59 1017.85 1018.12 1018.37 1018.58 1018.71 1018.77 1018.74 1018.64 1018.47 1018.25 1017.97 1017.66 1017.30 1016.90 1016.45 1015.96 1015.44 1014.89 1014.32 1013.77 1013.25 1012.80 1012.44 1012.18 1012.04 1012.02 1012.12 1012.30 1012.56 1012.85 1013.15 1013.44 1013.69 1013.89 1014.04 1014.12 1014.16 1014.16 1014.12 1014.08 1014.02 1013.96 1013.91
1017.16 1017.50 1017.84 1018.15 1018.39 1018.54 1018.61 1018.58 1018.46 1018.29 1018.05 1017.77 1017.46 1017.11 1016.72 1016.30 1015.82 1015.31 1014.76 1014.20 1013.63 1013.10 1012.63 1012.24 1011.96 1011.81 1011.78 1011.88 1012.08 1012.36 1012.68 1013.03 1013.36 1013.65 1013.89 1014.07 1014.18 1014.24 1014.26 1014.25 1014.23 1014.21 1014.19 1014.19
1016.77 1017.19 1017.59 1017.94 1018.21 1018.37 1018.43 1018.39 1018.26 1018.07 1017.83 1017.55 1017.24 1016.91 1016.54 1016.13 1015.68 1015.19 1014.66 1014.11 1013.55 1013.01 1012.52 1012.12 1011.83 1011.66 1011.63 1011.72 1011.93 1012.23 1012.58 1012.95 1013.32 1013.65 1013.93 1014.14 1014.28 1014.37 1014.41 1014.43 1014.43 1014.44 1014.47 1014.51
1016.40 1016.88 1017.34 1017.72 1018.01 1018.17 1018.23 1018.18 1018.05 1017.85 1017.61 1017.33 1017.04 1016.72 1016.38 1016.00 1015.58 1015.12 1014.61 1014.07 1013.52 1012.99 1012.50 1012.09 1011.79 1011.61 1011.56 1011.65 1011.86 1012.17 1012.54 1012.93 1013.32 1013.69 1013.99 1014.23 1014.41 1014.52 1014.59 1014.63 1014.65 1014.69 1014.74 1014.82
1016.04 1016.58 1017.08 1017.49 1017.78 1017.95 1018.01 1017.96 1017.83 1017.63 1017.40 1017.14 1016.86 1016.57 1016.26 1015.91 1015.52 1015.08 1014.60 1014.09 1013.55 1013.03 1012.54 1012.13 1011.81 1011.62 1011.57 1011.65 1011.86 1012.16 1012.53 1012.94 1013.35 1013.73 1014.06 1014.32 1014.52 1014.66 1014.74 1014.80 1014.84 1014.90 1014.97 1015.08
1015.71 1016.29 1016.80 1017.22 1017.52 1017.70 1017.76 1017.72 1017.59 1017.42 1017.20 1016.97 1016.72 1016.46 1016.17 1015.85 1015.49 1015.08 1014.62 1014.12 1013.60 1013.08 1012.60 1012.18 1011.86 1011.66 1011.59 1011.67 1011.86 1012.16 1012.53 1012.94 1013.36 1013.76 1014.10 1014.38 1014.59 1014.74 1014.84 1014.91 1014.97 1015.03 1015.12 1015.25
1015.40 1015.99 1016.50 1016.92 1017.22 1017.40 1017.47 1017.44 1017.34 1017.19 1017.01 1016.80 1016.59 1016.35 1016.10 1015.80 1015.46 1015.07 1014.62 1014.13 1013.62 1013.10 1012.62 1012.20 1011.88 1011.67 1011.59 1011.66 1011.84 1012.13 1012.50 1012.90 1013.32 1013.72 1014.07 1014.36 1014.58 1014.74 1014.85 1014.94 1015.01 1015.09 1015.19 1015.33
1015.11 1015.68 1016.17 1016.57 1016.86 1017.04 1017.12 1017.11 1017.04 1016.93 1016.78 1016.61 1016.43 1016.23 1015.99 1015.71 1015.39 1015.00 1014.56 1014.08 1013.56 1013.05 1012.57 1012.15 1011.82 1011.61 1011.53 1011.58 1011.76 1012.04 1012.39 1012.79 1013.21 1013.60 1013.96 1014.25 1014.48 1014.66 1014.78 1014.88 1014.97 1015.06 1015.18 1015.34
1014.82 1015.34 1015.80 1016.16 1016.44 1016.61 1016.70 1016.72 1016.69 1016.61 1016.51 1016.38 1016.23 1016.05 1015.84 1015.57 1015.25 1014.86 1014.42 1013.94 1013.43 1012.91 1012.43 1012.02 1011.69 1011.47 1011.39 1011.43 1011.60 1011.87 1012.22 1012.61 1013.02 1013.41 1013.77 1014.07 1014.31 1014.50 1014.64 1014.76 1014.86 1014.98 1015.13 1015.31
1014.49 1014.95 1015.36 1015.69 1015.94 1016.11 1016.22 1016.26 1016.27 1016.23 1016.17 1016.09 1015.97 1015.81 1015.61 1015.35 1015.04 1014.65 1014.21 1013.72 1013.21 1012.70 1012.23 1011.82 1011.49 1011.28 1011.19 1011.23 1011.39 1011.65 1011.99 1012.37 1012.77 1013.16 1013.52 1013.83 1014.08 1014.29 1014.45 1014.59 1014.73 1014.87 1015.05 1015.26
1014.09 1014.49 1014.84 1015.13 1015.36 1015.54 1015.66 1015.74 1015.78 1015.79 1015.78 1015.73 1015.64 1015.51 1015.33 1015.08 1014.77 1014.39 1013.95 1013.47 1012.96 1012.46 1012.00 1011.59 1011.28 1011.07 1010.99 1011.02 1011.17 1011.42 1011.74 1012.11 1012.50 1012.88 1013.23 1013.55 1013.82 1014.05 1014.24 1014.41 1014.58 1014.76 1014.96 1015.21
Thickness
5576 5575 5573 5571 5578 5588 5592 5594 5593 5593 5596 5599 5608 5616 5627 5640 5653 5665 5674 5682 5688 5692 5696 5702 5707 5710 5711 5711 5710 5707 5701 5695 5690 5687 5686 5685 5683 5680 5678 5676 5675 5673 5670 5668
5573 5576 5577 5571 5572 5579 5585 5587 5589 5592 5593 5598 5607 5616 5625 5633 5644 5653 5661 5669 5676 5682 5687 5690 5692 5694 5698 5699 5701 5700 5695 5689 5686 5683 5681 5680 5679 5678 5675 5671 5669 5668 5666 5665
5569 5580 5580 5565 5563 5569 5575 5578 5582 5584 5585 5597 5605 5612 5618 5626 5635 5644 5652 5659 5665 5670 5674 5676 5679 5681 5683 5685 5687 5687 5683 5680 5677 5675 5674 5674 5674 5672 5669 5666 5664 5662 5662 5661
5572 5575 5563 5561 5570 5572 5577 5579 5581 5584 5589 5595 5601 5610 5620 5627 5631 5639 5648 5653 5658 5662 5666 5668 5671 5673 5674 5675 5674 5673 5671 5669 5668 5667 5666 5665 5665 5663 5662 5661 5659 5657 5656 5655
5574 5571 5568 5573 5579 5580 5580 5583 5583 5586 5592 5599 5606 5618 5625 5633 5635 5641 5648 5652 5656 5659 5662 5664 5665 5666 5667 5666 5665 5665 5663 5661 5660 5659 5658 5656 5655 5655 5654 5653 5652 5651 5651 5650
5580 5578 5572 5576 5588 5593 5588 5587 5589 5591 5595 5600 5605 5608 5618 5632 5637 5645 5651 5655 5656 5658 5660 5661 5661 5662 5661 5659 5658 5657 5656 5654 5653 5652 5650 5648 5647 5646 5646 5645 5644 5644 5644 5644
5578 5580 5582 5589 5595 5596 5586 5584 5591 5595 5598 5601 5601 5605 5618 5631 5640 5647 5654 5657 5657 5657 5657 5658 5659 5658 5655 5653 5652 5652 5651 5648 5646 5644 5643 5640 5639 5638 5637 5637 5636 5636 5636 5636
5581 5578 5579 5597 5595 5589 5588 5594 5597 5599 5602 5606 5610 5619 5628 5636 5643 5650 5655 5658 5658 5655 5655 5656 5656 5654 5651 5649 5649 5648 5645 5642 5640 5637 5636 5634 5632 5630 5629 5628 5627 5625 5625 5625
5592 5589 5597 5600 5599 5600 5599 5599 5601 5604 5608 5611 5616 5623 5631 5639 5646 5652 5656 5657 5656 5654 5653 5652 5652 5651 5648 5646 5646 5643 5639 5636 5633 5631 5628 5626 5623 5621 5619 5618 5616 5615 5614 5613
5602 5601 5602 5603 5604 5605 5605 5605 5608 5610 5614 5617 5620 5627 5634 5641 5647 5651 5654 5655 5654 5653 5650 5649 5649 5648 5646 5645 5643 5638 5633 5629 5626 5623 5620 5617 5615 5613 5611 5609 5607 5606 5605 5603
5606 5607 5606 5607 5607 5607 5609 5610 5612 5616 5620 5623 5626 5631 5636 5641 5646 5650 5652 5653 5653 5651 5649 5648 5647 5646 5645 5642 5639 5633 5629 5625 5621 5618 5615 5612 5609 5606 5604 5602 5600 5598 5597 5595
5608 5610 5605 5606 5610 5611 5611 5613 5616 5619 5622 5627 5630 5633 5637 5641 5645 5648 5650 5651 5651 5650 5650 5649 5647 5644 5642 5640 5636 5630 5625 5621 5617 5615 5612 5609 5606 5603 5600 5597 5595 5594 5592 5590
5624 5620 5614 5613 5613 5615 5615 5617 5620 5622 5624 5627 5631 5635 5637 5640 5644 5647 5650 5651 5650 5650 5651 5650 5648 5645 5643 5640 5636 5630 5624 5620 5617 5614 5611 5609 5606 5602 5599 5596 5593 5591 5589 5587
5634 5625 5618 5617 5614 5616 5617 5619 5621 5623 5626 5628 5631 5635 5637 5640 5644 5646 5649 5652 5654 5654 5654 5653 5651 5648 5647 5642 5637 5632 5626 5622 5618 5615 5612 5610 5607 5604 5600 5596 5592 5589 5588 5587
5639 5630 5623 5620 5618 5617 5618 5618 5619 5620 5624 5627 5632 5634 5637 5640 5643 5646 5650 5654 5656 5658 5658 5658 5655 5653 5651 5646 5640 5635 5629 5624 5621 5618 5615 5612 5608 5604 5601 5597 5593 5589 5587 5587
5644 5636 5628 5622 5618 5616 5617 5618 5618 5620 5623 5627 5631 5634 5638 5641 5644 5648 5652 5654 5655 5657 5661 5661 5660 5660 5656 5650 5644 5638 5633 5630 5625 5621 5618 5614 5610 5606 5602 5598 5594 5591 5589 5587
5646 5637 5631 5625 5621 5619 5618 5618 5619 5620 5622 5626 5630 5634 5638 5642 5646 5649 5653 5656 5658 5661 5664 5665 5666 5666 5661 5655 5648 5642 5637 5634 5631 5625 5621 5617 5613 5609 5605 5601 5597 5594 5591 5589
5656 5647 5638 5632 5624 5621 5620 5620 5620 5621 5622 5626 5630 5633 5637 5640 5644 5648 5652 5656 5660 5664 5668 5670 5670 5669 5665 5660 5653 5647 5642 5637 5633 5629 5625 5621 5617 5613 5609 5605 5602 5598 5594 5592
5659 5651 5644 5639 5633 5627 5623 5622 5622 5622 5624 5626 5628 5630 5634 5638 5643 5647 5652 5656 5658 5660 5666 5672 5674 5672 5667 5663 5657 5651 5646 5641 5636 5632 5628 5626 5621 5617 5613 5609 5606 5603 5599 5596
5660 5655 5649 5644 5639 5632 5628 5626 5625 5624 5625 5626 5627 5629 5632 5637 5642 5647 5650 5653 5657 5660 5666 5671 5673 5671 5668 5664 5660 5655 5650 5645 5640 5635 5631 5628 5624 5620 5616 5613 5610 5607 5604 5601
5661 5656 5651 5645 5641 5637 5633 5630 5627 5625 5625 5626 5625 5627 5630 5635 5640 5644 5648 5652 5659 5663 5666 5670 5670 5669 5668 5665 5662 5657 5652 5647 5643 5638 5635 5630 5627 5623 5619 5616 5613 5611 5608 5605
5660 5656 5651 5646 5641 5638 5635 5631 5629 5627 5627 5626 5626 5627 5629 5633 5638 5643 5647 5651 5657 5663 5666 5668 5669 5670 5668 5665 5661 5658 5654 5650 5645 5642 5638 5634 5630 5626 5622 5619 5616 5613 5611 5608
5659 5655 5650 5646 5642 5638 5636 5633 5631 5629 5627 5626 5626 5625 5627 5630 5634 5638 5644 5652 5657 5663 5666 5668 5671 5672 5670 5666 5662 5659 5655 5652 5648 5645 5641 5638 5634 5630 5626 5622 5618 5616 5613 5610
5657 5653 5649 5646 5642 5638 5635 5633 5631 5629 5628 5627 5626 5626 5626 5628 5633 5639 5643 5650 5656 5662 5666 5670 5672 5673 5670 5665 5663 5659 5656 5653 5650 5647 5644 5641 5637 5633 5629 5624 5621 5618 5615 5612
5654 5651 5647 5643 5639 5636 5635 5633 5631 5629 5627 5625 5625 5625 5626 5626 5628 5635 5641 5647 5654 5660 5664 5669 5672 5672 5668 5665 5663 5660 5657 5654 5652 5649 5646 5642 5639 5635 5630 5626 5623 5620 5617 5613
5649 5646 5644 5642 5639 5636 5633 5631 5629 5627 5625 5623 5623 5623 5624 5626 5628 5632 5637 5643 5650 5656 5661 5665 5667 5668 5666 5665 5663 5661 5658 5655 5653 5651 5648 5644 5641 5636 5632 5628 5625 5621 5618 5614
5643 5641 5639 5637 5635 5633 5631 5630 5628 5627 5625 5623 5622 5622 5622 5623 5625 5628 5633 5637 5643 5649 5655 5661 5664 5665 5665 5664 5663 5662 5659 5656 5654 5651 5649 5646 5642 5638 5634 5630 5627 5623 5619 5615